Weather History for Big Piney, WY

Change the Weather History Date:

Sunday, February 3, 2013

  Actual Average Record
Temperature  
Mean Temperature 20 °F 12 °F  
Max Temperature 36 °F 26 °F 48 °F (2000)
Min Temperature 4 °F -3 °F -31 °F (1996)
Degree Days  
Heating Degree Days 45 53  
Month to date heating degree days 136 161  
Since 1 July heating degree days 5610 6274  
Cooling Degree Days 0 0  
Month to date cooling degree days 0 0  
Year to date cooling degree days 0 0  
Moisture  
Dew Point 9 °F    
Average Humidity 70    
Maximum Humidity 100    
Minimum Humidity 40    
Precipitation  
Precipitation 0.00 in 0.01 in 0.05 in (1989)
Month to date precipitation T 0.03  
Year to date precipitation 0.07 0.34  
Sea Level Pressure  
Sea Level Pressure 30.28 in    
Wind  
Wind Speed 5 mph (NNW)    
Max Wind Speed 20 mph    
Max Gust Speed 23 mph    
Visibility 10 miles    
Events      
T = Trace of Precipitation, MM = Missing Value Source: NWS Daily Summary

Daily Weather History Graph

Daily Weather History Graph

Search for Another Location

Airport:

Trip Planner

Search our weather history database for the weather conditions in past years. The results will help you decide how hot, cold, wet, or windy it might be!

Date:

Astronomy

Feb. 03, 2013 Rise Set
Actual Time 7:32 AM MST 5:37 PM MST
Civil Twilight 7:02 AM MST 6:06 PM MST
Nautical Twilight 6:28 AM MST 6:40 PM MST
Astronomical Twilight 5:55 AM MST 7:13 PM MST
Moon 1:03 AM MST (2/3) 11:15 AM MST (2/3)
Length of Visible Light 11h 04m
Length of Day
10h 05m
Waning Gibbous, 48% of the Moon is Illuminated
Feb 3
Waning Gibbous
Feb 10
New
Feb 17
First Quarter
Feb 25
Full
Mar 4
Last Quarter

Hourly Weather History & Observations

Time (MST) Temp. Windchill Dew Point Humidity Pressure Visibility Wind Dir Wind Speed Gust Speed Precip Events Conditions
12:53 AM 8.1 °F -2.0 °F 3.9 °F 83% 30.44 in 10.0 mi WNW 5.8 mph - N/A   Clear
1:53 AM 10.9 °F -0.8 °F 7.0 °F 84% 30.38 in 10.0 mi NNW 8.1 mph - N/A   Clear
2:53 AM 5.0 °F -4.1 °F 1.0 °F 84% 30.39 in 10.0 mi West 4.6 mph - N/A   Clear
3:53 AM 7.0 °F -1.7 °F 3.9 °F 87% 30.35 in 10.0 mi ENE 4.6 mph - N/A   Clear
4:53 AM 7.0 °F - 6.1 °F 96% 30.34 in 10.0 mi Calm Calm - N/A   Clear
5:53 AM 3.9 °F -3.4 °F -0.0 °F 84% 30.37 in 10.0 mi NNE 3.5 mph - N/A   Clear
6:53 AM 6.1 °F -0.9 °F 1.9 °F 83% 30.39 in 10.0 mi NNW 3.5 mph - N/A   Clear
7:53 AM 5.0 °F -2.1 °F 1.9 °F 87% 30.40 in 10.0 mi East 3.5 mph - N/A   Clear
8:53 AM 10.9 °F 1.4 °F 6.1 °F 81% 30.38 in 10.0 mi ENE 5.8 mph - N/A   Clear
9:53 AM 17.1 °F - 12.0 °F 81% 30.35 in 10.0 mi Calm Calm - N/A   Clear
10:53 AM 21.9 °F - 15.1 °F 75% 30.31 in 10.0 mi Calm Calm - N/A   Clear
11:53 AM 24.1 °F - 14.0 °F 65% 30.26 in 10.0 mi Calm Calm - N/A   Clear
12:53 PM 28.9 °F 25.2 °F 16.0 °F 58% 30.23 in 10.0 mi East 3.5 mph - N/A   Clear
1:53 PM 36.0 °F - 14.0 °F 41% 30.14 in 10.0 mi Calm Calm - N/A   Clear
2:53 PM 33.1 °F 30.0 °F 17.1 °F 52% 30.18 in 10.0 mi WSW 3.5 mph - N/A   Clear
3:53 PM 36.0 °F 33.3 °F 17.1 °F 46% 30.13 in 10.0 mi SW 3.5 mph - N/A   Clear
4:53 PM 33.1 °F 30.0 °F 16.0 °F 50% 30.16 in 10.0 mi West 3.5 mph - N/A   Clear
5:53 PM 26.1 °F 14.5 °F 14.0 °F 60% 30.22 in 10.0 mi North 13.8 mph - N/A   Clear
6:53 PM 25.0 °F 12.2 °F 12.9 °F 60% 30.21 in 10.0 mi North 16.1 mph - N/A   Clear
7:53 PM 21.0 °F 7.1 °F 10.9 °F 65% 30.23 in 10.0 mi North 16.1 mph - N/A   Clear
8:53 PM 23.0 °F 11.1 °F 10.0 °F 58% 30.20 in 10.0 mi North 12.7 mph - N/A   Clear
9:53 PM 16.0 °F 7.4 °F 7.0 °F 68% 30.23 in 10.0 mi WSW 5.8 mph - N/A   Clear
10:53 PM 17.1 °F 10.0 °F 6.1 °F 62% 30.19 in 10.0 mi West 4.6 mph - N/A   Clear
11:53 PM 12.9 °F - 5.0 °F 71% 30.21 in 10.0 mi Calm Calm - N/A   Clear